Location: State Camp
(41.2367°N, 77.7828°W)
Time: 02:03:07
(UTC-04:00)

Amateur Radio Satellites - All Passes

Search period start: 24 May 2016 01:33
Search period end: 25 May 2016 01:33
Location: State Camp, 41.2367°N, 77.7828°W

Satellite Date Start Highest point End Downlink Frequencies (MHz)
Time Altitude Azimuth
DANDE 24 May 01:34:28 01:41:58 38° 273° (W) 01:49:07 436.750
JAS-2 24 May 01:40:46 01:48:10 51° 97° (E) 01:54:48 435.910
SO-50 24 May 01:44:45 01:49:30 53° 118° (ESE) 01:54:17 436.795
ISS 24 May 01:45:51 01:48:02 16° 347° (NNW) 01:50:13 145.825
BEESAT 24 May 01:52:59 01:57:06 30° 68° (ENE) 02:01:16 436.000
DUCHIFAT 1 24 May 02:05:00 02:07:29 15° 296° (WNW) 02:09:57 145.980
PHONESAT 2.4 24 May 02:05:37 02:08:44 72° 173° (S) 02:11:52 2401.200-2431.200
SPROUT 24 May 02:07:24 02:08:34 11° 270° (W) 02:09:44 437.525
Gurwin Techsat 1B 24 May 02:26:24 02:30:37 23° 94° (E) 02:34:49 435.225
Oscar 19 24 May 02:37:23 02:42:33 71° 102° (ESE) 02:47:40 437.125/150
BUGSAT 1 24 May 02:41:49 02:43:32 12° 297° (WNW) 02:45:14 437.445
TISAT 1 24 May 02:46:17 02:48:26 14° 269° (W) 02:50:35 437.305
RS-15 24 May 02:55:38 03:07:51 63° 50° (NE) 03:20:01 29.354- 29.394
SWISSCUBE 24 May 02:59:50 03:04:27 51° 260° (W) 03:09:06 437.505
ITUPSAT 1 24 May 03:03:37 03:08:16 53° 260° (W) 03:12:56 437.325
ITAMSAT 1 24 May 03:10:15 03:14:22 23° 94° (E) 03:18:27 435.822/435.867
STARS 24 May 03:10:32 03:12:20 12° 62° (ENE) 03:14:09 437.465
ISS 24 May 03:23:37 03:25:28 14° 7° (N) 03:27:20 145.825
JAS-2 24 May 03:26:08 03:32:49 34° 297° (WNW) 03:38:59 435.910
SO-50 24 May 03:26:19 03:30:17 24° 316° (NW) 03:34:15 436.795
BEESAT 24 May 03:30:47 03:34:51 28° 264° (W) 03:38:57 436.000
Cosmos 2504 24 May 03:39:21 03:42:34 12° 58° (ENE) 03:45:50 435.465 / 435.565
MOZHAYETS 4 24 May 03:41:42 03:45:49 34° 70° (ENE) 03:49:56
PHONESAT 2.4 24 May 03:42:20 03:45:27 66° 189° (S) 03:48:33 2401.200-2431.200
YUBILEINY 24 May 03:46:20 03:54:48 50° 76° (ENE) 04:03:14 435.215
KKS-1 24 May 03:56:30 04:00:58 72° 75° (ENE) 04:05:26 437.445
Gurwin Techsat 1B 24 May 04:05:42 04:10:44 44° 290° (WNW) 04:15:44 435.225
Oscar 19 24 May 04:18:19 04:21:16 15° 300° (WNW) 04:24:11 437.125/150
Cosmos 2491 24 May 04:39:07 04:47:37 55° 90° (E) 04:56:07 435.465 / 435.565
STARS 24 May 04:43:44 04:48:08 68° 257° (WSW) 04:52:33 437.465
ITAMSAT 1 24 May 04:49:04 04:53:59 43° 290° (WNW) 04:58:54 435.822/435.867
AO-7 24 May 04:50:30 04:58:47 62° 104° (ESE) 05:07:02 29.400- 29.500
CUBESAT XI-V 24 May 04:55:59 04:59:46 25° 67° (ENE) 05:03:33 437.345
ISS 24 May 04:59:38 05:02:39 33° 27° (NNE) 05:05:40 145.825
RS-15 24 May 05:08:44 05:19:54 43° 253° (WSW) 05:31:01 29.354- 29.394
HORYU 2 24 May 05:14:52 05:18:28 24° 95° (E) 05:22:04 437.375
PHONESAT 2.4 24 May 05:19:23 05:21:55 22° 205° (SSW) 05:24:26 2401.200-2431.200
MOZHAYETS 4 24 May 05:19:28 05:23:02 23° 266° (W) 05:26:38
Cosmos 2504 24 May 05:29:22 05:37:37 64° 79° (E) 05:46:18 435.465 / 435.565
KKS-1 24 May 05:37:08 05:38:00 10° 270° (W) 05:38:53 437.445
YUBILEINY 24 May 05:43:38 05:51:16 36° 275° (W) 05:58:56 435.215
NOAA 18 24 May 06:12:24 06:15:43 16° 91° (E) 06:19:01 137.9125
STRAND 1 24 May 06:13:35 06:16:30 16° 61° (ENE) 06:19:26 437.568
CUBESAT XI-V 24 May 06:32:45 06:36:58 34° 264° (W) 06:41:14 437.345
ISS 24 May 06:36:08 06:39:04 30° 224° (SW) 06:41:58 145.825
Cosmos 2491 24 May 06:37:01 06:44:48 34° 290° (WNW) 06:52:37 435.465 / 435.565
AO-7 24 May 06:43:57 06:51:04 33° 303° (WNW) 06:58:10 29.400- 29.500
Cubesat XI-IV 24 May 06:46:24 06:50:56 27° 95° (E) 06:55:27 437.490
HORYU 2 24 May 06:51:08 06:55:01 31° 292° (WNW) 06:58:56 437.375
LilacSat-2 24 May 06:55:37 06:58:53 27° 96° (E) 07:02:08 437.200
NOAA 15 24 May 06:56:01 07:01:11 49° 100° (E) 07:06:17 137.62
BRITE-PL 24 May 07:06:15 07:11:22 50° 98° (E) 07:16:04 437.365/2234.400
AO-85 24 May 07:09:44 07:14:57 48° 116° (ESE) 07:20:07 145.980
Cosmos 2504 24 May 07:23:44 07:30:24 28° 277° (W) 07:37:22 435.465 / 435.565
DOVE 4 24 May 07:24:52 07:27:18 14° 90° (E) 07:29:40 437.250
CUTE-I 24 May 07:33:27 07:38:49 75° 103° (ESE) 07:44:11 437.470
GONETS M04 24 May 07:43:30 07:45:15 11° 54° (NE) 07:47:00
STRAND 1 24 May 07:50:01 07:55:05 69° 258° (WSW) 08:00:11 437.568
NOAA 18 24 May 07:51:24 07:56:50 66° 288° (WNW) 08:02:15 137.9125
GOMX 1 24 May 07:51:47 07:56:36 65° 100° (E) 08:01:03 467.674
PRISM 24 May 08:21:45 08:25:42 46° 72° (ENE) 08:29:43 437.425
CUTE 1.7 + AOD 2 24 May 08:22:27 08:25:17 17° 92° (E) 08:28:06 437.475
CINEMA 3 24 May 08:24:20 08:27:13 18° 93° (E) 08:30:03 145.822/145.860
Cosmos 2499 24 May 08:25:52 08:29:12 12° 58° (ENE) 08:32:34 435.465 / 435.565
Cubesat XI-IV 24 May 08:26:10 08:31:04 38° 292° (WNW) 08:35:59 437.490
LilacSat-2 24 May 08:30:15 08:33:02 20° 292° (WNW) 08:35:48 437.200
HO-68 24 May 08:31:39 08:37:55 31° 96° (E) 08:44:07 435.675
NOAA 15 24 May 08:36:35 08:40:35 22° 297° (WNW) 08:44:36 137.62
BRITE-PL 24 May 08:45:34 08:49:23 21° 297° (WNW) 08:53:01 437.365/2234.400
AIST 1 24 May 08:46:58 08:50:58 33° 76° (ENE) 08:54:53
AO-85 24 May 08:50:55 08:55:40 30° 314° (NW) 09:00:19 145.980
COMPASS 1 24 May 08:58:27 09:01:45 22° 94° (E) 09:05:03 437.405
DOVE 4 24 May 09:01:02 09:05:23 48° 288° (WNW) 09:09:29 437.250
AAUSAT CUBESAT 2 24 May 09:05:02 09:08:14 21° 94° (E) 09:11:24 437.432
AUBIESAT-1 24 May 09:07:46 09:11:03 51° 106° (ESE) 09:14:15 437.475
M-CUBED/EXP-1 PRIME 24 May 09:10:54 09:14:13 75° 107° (ESE) 09:17:27 437.505
CUTE-I 24 May 09:15:11 09:18:14 15° 300° (WNW) 09:21:15 437.470
CANX-2 24 May 09:29:01 09:33:18 74° 284° (WNW) 09:37:34 2200.000
GOMX 1 24 May 09:31:35 09:34:01 14° 299° (WNW) 09:36:23 467.674
GONETS M04 24 May 09:35:44 09:44:19 58° 78° (ENE) 09:52:49
CUBEBUG 2 24 May 09:39:43 09:43:37 38° 98° (E) 09:47:31 437.445
SEEDS 24 May 09:39:44 09:43:59 88° 291° (WNW) 09:48:15 437.485
PCSat 24 May 09:41:37 09:43:59 13° 103° (ESE) 09:46:21 145.827
Oscar 11 24 May 09:45:35 09:49:07 24° 95° (E) 09:52:38 145.826/435.025
UNISAT 6 24 May 09:46:40 09:49:56 21° 67° (ENE) 09:53:09 437.425
ZACube-1 24 May 09:51:59 09:55:23 24° 95° (E) 09:58:49 437.345
TIGRISAT 24 May 09:55:18 09:58:49 24° 68° (ENE) 10:02:17 435.000
CUTE 1.7 + AOD 2 24 May 09:57:17 10:01:17 40° 288° (WNW) 10:05:17 437.475
PRISM 24 May 09:59:03 10:01:16 14° 268° (W) 10:03:30 437.425
CINEMA 3 24 May 10:00:40 10:04:30 35° 289° (WNW) 10:08:17 145.822/145.860
DELFI C3 24 May 10:07:51 10:10:46 19° 94° (E) 10:13:40 145.870
Cosmos 2499 24 May 10:15:38 10:24:05 63° 79° (E) 10:32:50 435.465 / 435.565
SO-50 24 May 10:16:25 10:20:58 46° 52° (NE) 10:25:21 436.795
UWE-3 24 May 10:16:29 10:20:39 71° 102° (ESE) 10:24:50 435.000/436.395/437.385
HO-68 24 May 10:18:58 10:25:49 51° 293° (WNW) 10:32:40 435.675
AIST 1 24 May 10:25:09 10:28:17 20° 273° (W) 10:31:24
ANTELSAT 24 May 10:26:49 10:31:07 54° 74° (ENE) 10:35:21 437.575/2403.000
FUNcube-1 24 May 10:31:42 10:35:51 65° 101° (E) 10:40:02 145.935
COMPASS 1 24 May 10:33:37 10:37:20 31° 290° (WNW) 10:41:01 437.405
HUMSAT D 24 May 10:34:45 10:37:34 17° 93° (E) 10:40:22 437.325/437.525
AAUSAT CUBESAT 2 24 May 10:40:01 10:43:45 32° 290° (WNW) 10:47:30 437.432
NANOSAT C BR1 24 May 10:41:18 10:43:32 14° 64° (ENE) 10:45:47 145.865
O/OREOS (USA 219) 24 May 10:43:54 10:48:27 69° 109° (ESE) 10:52:59 437.305
CUBEBUG 2 24 May 11:17:12 11:19:59 18° 294° (WNW) 11:22:45 437.445
DUCHIFAT 1 24 May 11:19:56 11:23:45 34° 70° (ENE) 11:27:34 145.980
PCSat 24 May 11:21:11 11:26:36 83° 298° (WNW) 11:32:04 145.827
Oscar 11 24 May 11:21:27 11:25:14 30° 291° (WNW) 11:29:01 145.826/435.025
UNISAT 6 24 May 11:22:22 11:26:26 36° 262° (W) 11:30:27 437.425
ZACube-1 24 May 11:28:07 11:31:39 27° 291° (WNW) 11:35:12 437.345
TIGRISAT 24 May 11:31:28 11:35:22 30° 263° (W) 11:39:14 435.000
GONETS M04 24 May 11:33:23 11:40:34 30° 277° (W) 11:47:45
DELFI C3 24 May 11:42:05 11:45:42 32° 289° (WNW) 11:49:18 145.870
50 SAT 24 May 11:45:22 11:47:08 13° 92° (E) 11:48:52 437.505
JAS-2 24 May 11:52:37 11:58:23 26° 59° (ENE) 12:04:26 435.910
POPSAT HIP 1 24 May 11:53:05 11:57:21 89° 74° (ENE) 12:01:37 437.405
QB50P1 24 May 11:53:52 11:58:08 88° 261° (W) 12:02:24 145.935-145.965
BUGSAT 1 24 May 11:54:04 11:58:00 39° 71° (ENE) 12:01:55 437.445
QB50P2 24 May 11:54:48 11:59:03 81° 259° (WSW) 12:03:19 145.880/145.840
UWE-3 24 May 11:55:50 11:56:32 10° 298° (WNW) 11:57:14 435.000/436.395/437.385
POLYITAN 1 24 May 11:57:14 12:01:30 79° 259° (W) 12:05:44 437.675
SO-50 24 May 11:57:40 12:01:06 21° 249° (WSW) 12:04:27 436.795
CUSAT 1 24 May 11:58:23 12:03:36 33° 85° (E) 12:09:54 437.405
AISAT 24 May 12:02:17 12:05:42 21° 94° (E) 12:09:04 437.250
ANTELSAT 24 May 12:06:02 12:08:09 13° 269° (W) 12:10:14 437.575/2403.000
HUMSAT D 24 May 12:09:30 12:13:19 37° 288° (WNW) 12:17:10 437.325/437.525
Cosmos 2499 24 May 12:09:40 12:16:37 29° 277° (W) 12:23:47 435.465 / 435.565
FUNcube-1 24 May 12:10:16 12:11:35 11° 297° (WNW) 12:12:53 145.935
BEESAT 2 24 May 12:10:19 12:11:41 12° 108° (ESE) 12:13:04 435.950
NANOSAT C BR1 24 May 12:14:42 12:18:50 53° 260° (W) 12:22:59 145.865
SPROUT 24 May 12:16:37 12:17:36 11° 90° (E) 12:18:35 437.525
Oscar 19 24 May 12:18:07 12:20:39 14° 59° (ENE) 12:23:10 437.125/150
ESTCUBE 1 24 May 12:24:05 12:28:33 53° 100° (E) 12:32:59 437.505/2401.250
O/OREOS (USA 219) 24 May 12:25:57 12:28:21 14° 308° (NW) 12:30:45 437.305
UKube-1 24 May 12:30:51 12:34:35 28° 96° (E) 12:38:17 .
BEESAT 3 24 May 12:49:43 12:53:34 58° 119° (ESE) 12:57:28 437.485
DUCHIFAT 1 24 May 12:56:24 12:59:31 20° 266° (W) 13:02:39 145.980
DANDE 24 May 12:59:56 13:04:41 45° 89° (E) 13:10:55 436.750
VELOX 1 24 May 13:02:16 13:06:44 88° 280° (W) 13:11:09 145.980
CUBEBUG 1 24 May 13:05:27 13:09:52 78° 284° (WNW) 13:14:12 437.445
PCSat 24 May 13:07:39 13:10:51 16° 319° (NW) 13:14:04 145.827
DX 1 24 May 13:10:01 13:14:24 86° 284° (WNW) 13:18:45 434.975-435.025
50 SAT 24 May 13:17:33 13:21:03 40° 287° (WNW) 13:24:33 437.505
BUGSAT 1 24 May 13:30:39 13:33:30 18° 267° (W) 13:36:22 437.445
JAS-2 24 May 13:35:27 13:42:35 72° 258° (WSW) 13:50:23 435.910
AISAT 24 May 13:38:14 13:42:14 34° 290° (WNW) 13:46:13 437.250
CUSAT 1 24 May 13:39:44 13:45:26 43° 289° (WNW) 13:52:28 437.405
BEESAT 2 24 May 13:45:05 13:49:01 61° 305° (NW) 13:52:58 435.950
Gurwin Techsat 1B 24 May 13:47:16 13:52:06 37° 69° (ENE) 13:56:59 435.225
SPROUT 24 May 13:49:45 13:53:58 64° 285° (WNW) 13:58:09 437.525
Oscar 19 24 May 13:54:03 13:59:15 81° 255° (WSW) 14:04:30 437.125/150
AO-7 24 May 14:00:33 14:05:55 19° 50° (NE) 14:11:18 29.400- 29.500
ESTCUBE 1 24 May 14:02:09 14:04:55 16° 296° (WNW) 14:07:40 437.505/2401.250
UKube-1 24 May 14:06:57 14:10:32 26° 293° (WNW) 14:14:07 .
TISAT 1 24 May 14:27:41 14:31:54 88° 284° (WNW) 14:36:03 437.305
ITAMSAT 1 24 May 14:28:03 14:32:43 36° 68° (ENE) 14:37:24 435.822/435.867
BEESAT 3 24 May 14:29:10 14:31:37 16° 317° (NW) 14:34:05 437.485
DANDE 24 May 14:43:31 14:47:56 26° 296° (WNW) 14:53:25 436.750
Cosmos 2491 24 May 14:49:59 14:57:07 27° 67° (ENE) 15:04:10 435.465 / 435.565
SWISSCUBE 24 May 14:59:55 15:04:25 39° 98° (E) 15:08:54 437.505
ITUPSAT 1 24 May 15:04:03 15:08:33 38° 98° (E) 15:13:00 437.325
AIST 2 24 May 15:23:54 15:28:01 87° 308° (NW) 15:32:11 435.215
JAS-2 24 May 15:26:14 15:28:58 12° 278° (W) 15:31:46 435.910
Gurwin Techsat 1B 24 May 15:27:38 15:32:07 28° 265° (W) 15:36:37 435.225
BEESAT 24 May 15:29:54 15:34:42 73° 103° (ESE) 15:39:28 436.000
AO-85 24 May 15:42:15 15:46:41 37° 49° (NE) 15:50:43 145.980
AO-7 24 May 15:49:10 15:57:26 81° 70° (ENE) 16:05:47 29.400- 29.500
KKS-1 24 May 15:49:11 15:51:23 13° 91° (E) 15:53:34 437.445
ITAMSAT 1 24 May 16:07:49 16:12:12 28° 264° (W) 16:16:38 435.822/435.867
HORYU 2 24 May 16:13:05 16:16:34 23° 67° (ENE) 16:20:04 437.375
STARS 24 May 16:33:51 16:37:10 21° 94° (E) 16:40:28 437.465
SWISSCUBE 24 May 16:38:15 16:41:58 23° 295° (WNW) 16:45:42 437.505
NOAA 15 24 May 16:41:00 16:42:21 11° 57° (ENE) 16:43:42 137.62
ITUPSAT 1 24 May 16:42:22 16:46:09 24° 294° (WNW) 16:49:56 437.325
Cosmos 2491 24 May 16:46:00 16:54:41 68° 267° (W) 17:03:16 435.465 / 435.565
YUBILEINY 24 May 16:46:58 16:55:23 58° 91° (E) 17:03:51 435.215
AIST 2 24 May 17:05:26 17:07:08 12° 321° (NW) 17:08:52 435.215
BEESAT 24 May 17:09:36 17:11:52 13° 299° (WNW) 17:14:09 436.000
MOZHAYETS 4 24 May 17:13:03 17:17:42 83° 100° (E) 17:22:20
CUTE-I 24 May 17:17:59 17:21:13 17° 61° (ENE) 17:24:28 437.470
RS-15 24 May 17:20:11 17:29:58 36° 105° (ESE) 17:40:10 29.354- 29.394
AO-85 24 May 17:23:15 17:26:54 24° 249° (WSW) 17:30:18 145.980
KKS-1 24 May 17:23:56 17:28:17 55° 287° (WNW) 17:32:36 437.445
GOMX 1 24 May 17:25:51 17:26:42 10° 58° (ENE) 17:27:33 467.674
NOAA 18 24 May 17:38:07 17:42:53 32° 66° (ENE) 17:47:40 137.9125
LilacSat-2 24 May 17:38:42 17:40:54 15° 66° (ENE) 17:43:05 437.200
AO-7 24 May 17:45:08 17:51:03 21° 268° (W) 17:57:00 29.400- 29.500
HORYU 2 24 May 17:48:58 17:52:57 33° 263° (W) 17:56:57 437.375
Cubesat XI-IV 24 May 18:08:15 18:13:17 45° 70° (ENE) 18:18:20 437.490
Cosmos 2504 24 May 18:08:25 18:15:15 50° 90° (E) 18:22:24 435.465 / 435.565
STARS 24 May 18:09:39 18:13:36 34° 290° (WNW) 18:17:33 437.465
BRITE-PL 24 May 18:15:35 18:21:03 58° 72° (ENE) 18:26:38 437.365/2234.400
NOAA 15 24 May 18:15:56 18:21:14 78° 74° (ENE) 18:26:34 137.62
M-CUBED/EXP-1 PRIME 24 May 18:26:41 18:26:55 10° 58° (ENE) 18:27:09 437.505
PCSat 24 May 18:27:14 18:30:14 15° 40° (NE) 18:33:14 145.827
CUBESAT XI-V 24 May 18:28:41 18:33:22 59° 101° (E) 18:38:00 437.345
DOVE 4 24 May 18:29:19 18:33:01 20° 65° (ENE) 18:36:39 437.250
YUBILEINY 24 May 18:45:10 18:52:38 31° 291° (WNW) 19:00:09 435.215
Cosmos 2491 24 May 18:47:15 18:49:41 11° 287° (WNW) 18:52:08 435.465 / 435.565
MOZHAYETS 4 24 May 18:52:57 18:54:10 11° 300° (WNW) 18:55:23
CUTE-I 24 May 18:55:24 19:00:41 68° 258° (WSW) 19:06:00 437.470
GOMX 1 24 May 18:58:22 19:03:49 71° 75° (ENE) 19:09:15 467.674
HO-68 24 May 19:01:12 19:06:42 25° 58° (ENE) 19:12:13 435.675
LilacSat-2 24 May 19:11:18 19:14:53 38° 262° (W) 19:18:28 437.200
O/OREOS (USA 219) 24 May 19:16:04 19:18:38 15° 53° (NE) 19:21:10 437.305
CUTE 1.7 + AOD 2 24 May 19:16:19 19:18:12 13° 63° (ENE) 19:20:07 437.475
NOAA 18 24 May 19:18:31 19:23:27 34° 262° (W) 19:28:25 137.9125
CINEMA 3 24 May 19:25:40 19:29:08 20° 67° (ENE) 19:32:31 145.822/145.860
RS-15 24 May 19:30:15 19:41:33 68° 308° (NW) 19:53:35 29.354- 29.394
Cubesat XI-IV 24 May 19:49:25 19:53:32 23° 266° (W) 19:57:41 437.490
COMPASS 1 24 May 19:50:05 19:52:33 16° 65° (ENE) 19:55:02 437.405
AUBIESAT-1 24 May 19:53:10 19:57:23 74° 71° (ENE) 20:01:20 437.475
BRITE-PL 24 May 19:55:47 19:59:51 20° 270° (W) 20:03:58 437.365/2234.400
AAUSAT CUBESAT 2 24 May 19:56:17 19:58:33 15° 65° (ENE) 20:00:50 437.432
M-CUBED/EXP-1 PRIME 24 May 19:56:38 20:00:59 82° 253° (WSW) 20:05:01 437.505
NOAA 15 24 May 19:59:18 20:01:35 13° 271° (W) 20:03:53 137.62
STRAND 1 24 May 20:00:35 20:05:26 40° 98° (E) 20:10:15 437.568
Cosmos 2504 24 May 20:02:49 20:08:56 29° 291° (WNW) 20:15:21 435.465 / 435.565
DOVE 4 24 May 20:05:08 20:10:18 55° 260° (W) 20:15:21 437.250
CUBESAT XI-V 24 May 20:07:30 20:10:15 16° 297° (WNW) 20:12:59 437.345
PCSat 24 May 20:09:06 20:14:33 78° 59° (ENE) 20:19:58 145.827
CANX-2 24 May 20:21:24 20:25:36 77° 75° (ENE) 20:29:49 2200.000
BEESAT 2 24 May 20:27:46 20:28:32 10° 38° (NE) 20:29:18 435.950
SEEDS 24 May 20:31:08 20:35:14 62° 75° (ENE) 20:39:22 437.485
CUBEBUG 2 24 May 20:37:42 20:41:41 33° 71° (ENE) 20:45:34 437.445
GOMX 1 24 May 20:39:10 20:42:20 16° 271° (W) 20:45:31 467.674
Oscar 11 24 May 20:40:49 20:43:51 19° 66° (ENE) 20:46:55 145.826/435.025
HO-68 24 May 20:46:43 20:53:48 68° 256° (WSW) 21:00:57 435.675
GONETS M04 24 May 20:47:33 20:49:52 11° 73° (ENE) 20:52:12
ZACube-1 24 May 20:48:14 20:51:20 20° 67° (ENE) 20:54:25 437.345
CUTE 1.7 + AOD 2 24 May 20:49:25 20:53:33 58° 260° (W) 20:57:44 437.475
O/OREOS (USA 219) 24 May 20:54:02 20:58:28 62° 251° (WSW) 21:02:52 437.305
DELFI C3 24 May 20:55:26 20:56:54 12° 64° (ENE) 20:58:24 145.870
CINEMA 3 24 May 21:01:24 21:06:00 43° 262° (W) 21:10:26 145.822/145.860
BEESAT 3 24 May 21:07:08 21:10:46 34° 51° (NE) 21:14:22 437.485
UWE-3 24 May 21:13:11 21:17:27 56° 74° (ENE) 21:21:37 435.000/436.395/437.385
AIST 1 24 May 21:16:49 21:20:04 20° 87° (E) 21:23:20
COMPASS 1 24 May 21:23:47 21:27:45 45° 261° (W) 21:31:45 437.405
FUNcube-1 24 May 21:27:03 21:31:09 49° 73° (ENE) 21:35:13 145.935
HUMSAT D 24 May 21:27:19 21:29:08 13° 64° (ENE) 21:30:57 437.325/437.525
AAUSAT CUBESAT 2 24 May 21:29:39 21:33:38 48° 261° (W) 21:37:40 437.432
PRISM 24 May 21:38:16 21:42:28 78° 103° (ESE) 21:46:37 437.425
STRAND 1 24 May 21:40:13 21:44:22 25° 295° (WNW) 21:48:31 437.568
RS-15 24 May 21:47:18 21:56:53 28° 338° (NNW) 22:06:52 29.354- 29.394
PCSat 24 May 21:54:30 21:57:14 14° 257° (WSW) 21:59:57 145.827
DANDE 24 May 21:59:34 22:00:33 10° 52° (NE) 22:01:31 436.750
BEESAT 2 24 May 22:03:05 22:07:06 76° 57° (ENE) 22:11:04 435.950
SEEDS 24 May 22:10:24 22:11:20 11° 271° (W) 22:12:16 437.485
CUBEBUG 2 24 May 22:14:56 22:18:21 22° 266° (W) 22:21:43 437.445
Oscar 11 24 May 22:15:44 22:19:44 38° 263° (W) 22:23:45 145.826/435.025
ANTELSAT 24 May 22:21:01 22:21:56 11° 90° (E) 22:22:51 437.575/2403.000
ZACube-1 24 May 22:23:30 22:27:25 35° 263° (W) 22:31:17 437.345
DELFI C3 24 May 22:27:24 22:31:17 56° 260° (W) 22:35:12 145.870
CUSAT 1 24 May 22:32:45 22:39:32 30° 66° (ENE) 22:45:33 437.405
GONETS M04 24 May 22:36:11 22:44:52 67° 93° (E) 22:53:32
BEESAT 3 24 May 22:45:15 22:48:16 21° 248° (WSW) 22:51:15 437.485
UWE-3 24 May 22:52:23 22:54:13 12° 269° (W) 22:56:03 435.000/436.395/437.385
Cosmos 2499 24 May 22:52:52 22:59:38 47° 89° (E) 23:06:51 435.465 / 435.565
AIST 1 24 May 22:53:27 22:57:25 33° 284° (WNW) 23:01:26
AISAT 24 May 22:59:52 23:03:10 21° 66° (ENE) 23:06:27 437.250
HUMSAT D 24 May 23:00:18 23:04:18 54° 260° (W) 23:08:19 437.325/437.525
FUNcube-1 24 May 23:05:30 23:07:39 14° 268° (W) 23:09:49 145.935
UNISAT 6 24 May 23:13:33 23:17:38 42° 99° (E) 23:21:46 437.425
ISS 24 May 23:15:02 23:18:17 78° 142° (SE) 23:21:34 145.825
TIGRISAT 24 May 23:22:12 23:26:22 50° 100° (E) 23:30:33 435.000
ESTCUBE 1 24 May 23:23:23 23:27:43 48° 72° (ENE) 23:32:05 437.505/2401.250
UKube-1 24 May 23:25:31 23:29:02 24° 67° (ENE) 23:32:33 .
PHONESAT 2.4 24 May 23:28:12 23:30:23 18° 152° (SSE) 23:32:35 2401.200-2431.200
DANDE 24 May 23:37:29 23:45:35 48° 73° (ENE) 23:53:10 436.750
POPSAT HIP 1 24 May 23:39:25 23:41:41 14° 92° (E) 23:43:56 437.405
QB50P1 24 May 23:40:03 23:42:26 15° 92° (E) 23:44:47 145.935-145.965
QB50P2 24 May 23:40:58 23:43:35 16° 92° (E) 23:46:11 145.880/145.840
POLYITAN 1 24 May 23:43:22 23:46:01 16° 93° (E) 23:48:39 437.675
AIST 2 24 May 23:45:16 23:49:23 59° 55° (NE) 23:53:27 435.215
ANTELSAT 24 May 23:54:49 23:59:04 65° 285° (WNW) 00:03:21 437.575/2403.000
50 SAT 24 May 23:55:18 23:58:54 86° 79° (E) 00:02:34 437.505
VELOX 1 24 May 23:59:08 00:03:36 81° 77° (ENE) 00:08:06 145.980
NANOSAT C BR1 24 May 23:59:34 00:02:56 23° 95° (E) 00:06:17 145.865
CUBEBUG 1 25 May 00:00:52 00:05:19 85° 76° (ENE) 00:09:47 437.445
DX 1 25 May 00:05:05 00:09:28 81° 75° (ENE) 00:13:52 434.975-435.025
RS-15 25 May 00:05:43 00:15:02 24° 14° (NNE) 00:24:31 29.354- 29.394
CUSAT 1 25 May 00:14:25 00:22:11 59° 267° (W) 00:28:47 437.405
SO-50 25 May 00:32:11 00:35:01 15° 108° (ESE) 00:37:52 436.795
GONETS M04 25 May 00:35:11 00:42:22 27° 293° (WNW) 00:49:34
AISAT 25 May 00:35:11 00:39:22 39° 262° (W) 00:43:35 437.250
DUCHIFAT 1 25 May 00:39:09 00:43:20 62° 102° (ESE) 00:47:26 145.980
SPROUT 25 May 00:42:48 00:47:07 86° 262° (W) 00:51:26 437.525
Cosmos 2499 25 May 00:46:41 00:52:58 32° 290° (WNW) 00:59:40 435.465 / 435.565
JAS-2 25 May 00:47:14 00:52:29 20° 87° (E) 00:57:23 435.910
UNISAT 6 25 May 00:51:14 00:54:03 17° 295° (WNW) 00:56:52 437.425
ISS 25 May 00:52:28 00:55:02 21° 341° (NNW) 00:57:37 145.825
TIGRISAT 25 May 01:00:14 01:02:40 15° 296° (WNW) 01:05:05 435.000
UKube-1 25 May 01:01:08 01:04:57 30° 263° (W) 01:08:47 .
ESTCUBE 1 25 May 01:02:00 01:04:47 16° 268° (W) 01:07:35 437.505/2401.250
PHONESAT 2.4 25 May 01:03:42 01:06:47 57° 167° (SSE) 01:09:52 2401.200-2431.200
BUGSAT 1 25 May 01:10:54 01:14:57 66° 102° (ESE) 01:18:56 437.445
POPSAT HIP 1 25 May 01:13:41 01:17:43 47° 287° (WNW) 01:21:44 437.405
QB50P1 25 May 01:14:25 01:18:27 45° 288° (WNW) 01:22:27 145.935-145.965
QB50P2 25 May 01:15:36 01:19:35 42° 288° (WNW) 01:23:32 145.880/145.840
POLYITAN 1 25 May 01:18:03 01:22:00 41° 288° (WNW) 01:25:56 437.675
TISAT 1 25 May 01:18:55 01:23:07 67° 75° (ENE) 01:27:19 437.305
AIST 2 25 May 01:25:26 01:27:22 13° 251° (WSW) 01:29:17 435.215
